PAY6660 TNCA-MUCU

Flight info

Callsign PAY6660
Flight time 1h 30m
Altitude 38000
Route WALLP1F WALLP DCT IKMAG DCT GELOG IMOXO4
Aircraft B739/M-SDE2E3FGHIRWXY/LB1

Departure

Time 2026-04-26 19:41
Airport Queen Beatrix International Airport (TNCA)

Arrival

Time 2026-04-26 21:12
Airport Antonio Maceo International Airport (MUCU)
Time Latitude Longitude Altitude Speed Heading
2026-04-26 19:22 12.50271 -70.00761 45 ft 0 kts 16°
2026-04-26 19:32 12.50246 -70.00767 42 ft 4 kts
2026-04-26 19:33 12.50220 -70.00769 45 ft 4 kts 354°
2026-04-26 19:33 12.50196 -70.00762 45 ft 4 kts 314°
2026-04-26 19:33 12.50189 -70.00752 44 ft 0 kts 283°
2026-04-26 19:35 12.50189 -70.00753 44 ft 1 kts 282°
2026-04-26 19:36 12.50195 -70.00785 46 ft 8 kts 280°
2026-04-26 19:36 12.50205 -70.00833 46 ft 13 kts 281°
2026-04-26 19:36 12.50231 -70.00949 45 ft 15 kts 284°
2026-04-26 19:36 12.50255 -70.01069 46 ft 18 kts 264°
2026-04-26 19:37 12.50243 -70.01212 46 ft 23 kts 283°
2026-04-26 19:37 12.50284 -70.01382 46 ft 25 kts 283°
2026-04-26 19:37 12.50323 -70.01548 45 ft 23 kts 284°
2026-04-26 19:37 12.50360 -70.01705 44 ft 22 kts 283°
2026-04-26 19:38 12.50396 -70.01858 44 ft 22 kts 283°
2026-04-26 19:38 12.50432 -70.02006 44 ft 21 kts 284°
2026-04-26 19:38 12.50465 -70.02149 44 ft 20 kts 283°
2026-04-26 19:38 12.50497 -70.02284 44 ft 20 kts 284°
2026-04-26 19:39 12.50529 -70.02416 40 ft 19 kts 284°
2026-04-26 19:39 12.50561 -70.02545 41 ft 18 kts 284°
2026-04-26 19:39 12.50565 -70.02670 41 ft 18 kts 245°
2026-04-26 19:39 12.50505 -70.02780 37 ft 18 kts 239°
2026-04-26 19:40 12.50428 -70.02782 32 ft 7 kts 110°
2026-04-26 19:40 12.50424 -70.02734 34 ft 7 kts 103°
2026-04-26 19:40 12.50383 -70.02555 33 ft 63 kts 103°
2026-04-26 19:40 12.50221 -70.01864 41 ft 133 kts 103°
2026-04-26 19:41 12.49974 -70.00773 236 ft 173 kts 103°
2026-04-26 19:41 12.49681 -69.99532 944 ft 187 kts 102°
2026-04-26 19:41 12.49359 -69.98185 1700 ft 191 kts 102°
2026-04-26 19:41 12.49251 -69.97743 2045 ft 190 kts 102°
2026-04-26 19:42 12.48674 -69.95340 2706 ft 229 kts 102°
2026-04-26 19:42 12.48674 -69.93721 3380 ft 235 kts 73°
2026-04-26 19:42 12.49591 -69.92349 4152 ft 241 kts 41°
2026-04-26 19:42 12.51177 -69.91542 4614 ft 267 kts 18°
2026-04-26 19:43 12.52996 -69.91053 5404 ft 274 kts 17°
2026-04-26 19:43 12.54860 -69.90568 6218 ft 279 kts 16°
2026-04-26 19:43 12.56758 -69.90076 6978 ft 284 kts 17°
2026-04-26 19:43 12.58686 -69.89573 7770 ft 288 kts 16°
2026-04-26 19:44 12.60640 -69.89058 8573 ft 291 kts 16°
2026-04-26 19:44 12.62617 -69.88533 9362 ft 296 kts 16°
2026-04-26 19:44 12.64625 -69.87995 10136 ft 300 kts 16°
2026-04-26 19:44 12.66706 -69.87437 10459 ft 322 kts 16°
2026-04-26 19:45 12.68933 -69.86837 10607 ft 346 kts 16°
2026-04-26 19:45 12.71314 -69.86196 10965 ft 360 kts 15°
2026-04-26 19:45 12.73730 -69.85545 11608 ft 363 kts 15°
2026-04-26 19:45 12.76185 -69.84884 12268 ft 367 kts 15°
2026-04-26 19:46 12.78675 -69.84213 12877 ft 373 kts 15°
2026-04-26 19:46 12.81197 -69.83537 13538 ft 376 kts 15°
2026-04-26 19:46 12.83740 -69.82854 14120 ft 380 kts 15°
2026-04-26 19:46 12.86305 -69.82162 14695 ft 383 kts 14°
2026-04-26 19:47 12.88889 -69.81463 15272 ft 386 kts 14°
2026-04-26 19:47 12.89732 -69.81235 15453 ft 387 kts 14°
2026-04-26 19:47 12.94148 -69.80188 16346 ft 392 kts
2026-04-26 19:47 12.96837 -69.80568 16887 ft 391 kts 339°
2026-04-26 19:48 12.99244 -69.81835 17470 ft 390 kts 321°
2026-04-26 19:48 13.01286 -69.83666 18011 ft 391 kts 316°
2026-04-26 19:48 13.03280 -69.85530 18463 ft 395 kts 316°
2026-04-26 19:48 13.05315 -69.87441 18878 ft 398 kts 316°
2026-04-26 19:49 13.07366 -69.89363 19336 ft 400 kts 316°
2026-04-26 19:49 13.09432 -69.91291 19783 ft 403 kts 316°
2026-04-26 19:49 13.11516 -69.93228 20217 ft 405 kts 316°
2026-04-26 19:49 13.13616 -69.95175 20640 ft 408 kts 316°
2026-04-26 19:50 13.15729 -69.97129 21075 ft 410 kts 316°
2026-04-26 19:50 13.17855 -69.99095 21496 ft 413 kts 316°
2026-04-26 19:50 13.19995 -70.01072 21907 ft 415 kts 316°
2026-04-26 19:50 13.22148 -70.03061 22307 ft 418 kts 316°
2026-04-26 19:51 13.24313 -70.05063 22700 ft 420 kts 316°
2026-04-26 19:51 13.26489 -70.07074 23088 ft 422 kts 316°
2026-04-26 19:51 13.28678 -70.09097 23454 ft 425 kts 316°
2026-04-26 19:51 13.30879 -70.11134 23762 ft 427 kts 316°
2026-04-26 19:52 13.33090 -70.13179 24080 ft 428 kts 316°
2026-04-26 19:52 13.34559 -70.14538 24283 ft 430 kts 316°
2026-04-26 19:52 13.36781 -70.16595 24581 ft 432 kts 316°
2026-04-26 19:52 13.39018 -70.18666 24878 ft 434 kts 316°
2026-04-26 19:53 13.41263 -70.20746 25164 ft 436 kts 316°
2026-04-26 19:53 13.43519 -70.22835 25464 ft 438 kts 316°
2026-04-26 19:53 13.45785 -70.24935 25749 ft 440 kts 316°
2026-04-26 19:53 13.48062 -70.27045 26036 ft 442 kts 315°
2026-04-26 19:54 13.50344 -70.29161 26320 ft 443 kts 315°
2026-04-26 19:54 13.52639 -70.31289 26599 ft 445 kts 315°
2026-04-26 19:54 13.54943 -70.33426 26870 ft 447 kts 315°
2026-04-26 19:54 13.57258 -70.35574 27142 ft 449 kts 315°
2026-04-26 19:55 13.59582 -70.37731 27415 ft 451 kts 315°
2026-04-26 19:55 13.61917 -70.39899 27677 ft 453 kts 315°
2026-04-26 19:55 13.64260 -70.42074 27932 ft 455 kts 315°
2026-04-26 19:55 13.66616 -70.44263 28194 ft 457 kts 315°
2026-04-26 19:56 13.68975 -70.46455 28457 ft 458 kts 315°
2026-04-26 19:56 13.71347 -70.48659 28719 ft 460 kts 315°
2026-04-26 19:56 13.73723 -70.50868 28970 ft 462 kts 315°
2026-04-26 19:56 13.76111 -70.53088 29218 ft 464 kts 315°
2026-04-26 19:57 13.78509 -70.55319 29467 ft 465 kts 315°
2026-04-26 19:57 13.80910 -70.57553 29715 ft 467 kts 315°
2026-04-26 19:57 13.83322 -70.59798 29955 ft 468 kts 315°
2026-04-26 19:57 13.85739 -70.62047 30165 ft 469 kts 315°
2026-04-26 19:58 13.88167 -70.64309 30347 ft 472 kts 315°
2026-04-26 19:58 13.90602 -70.66577 30542 ft 473 kts 315°
2026-04-26 19:58 13.93045 -70.68853 30808 ft 473 kts 315°
2026-04-26 19:58 13.95479 -70.71121 31109 ft 472 kts 315°
2026-04-26 19:59 13.97915 -70.73392 31387 ft 472 kts 314°
2026-04-26 19:59 14.00350 -70.75662 31645 ft 473 kts 314°
2026-04-26 19:59 14.02791 -70.77940 31913 ft 474 kts 314°
2026-04-26 19:59 14.05235 -70.80220 32214 ft 474 kts 314°
2026-04-26 20:00 14.07677 -70.82500 32504 ft 474 kts 314°
2026-04-26 20:00 14.10121 -70.84782 32792 ft 475 kts 314°
2026-04-26 20:00 14.12569 -70.87069 33103 ft 475 kts 314°
2026-04-26 20:00 14.15015 -70.89354 33415 ft 475 kts 314°
2026-04-26 20:01 14.17462 -70.91641 33731 ft 475 kts 314°
2026-04-26 20:01 14.19909 -70.93928 34046 ft 474 kts 314°
2026-04-26 20:01 14.22347 -70.96207 34392 ft 472 kts 314°
2026-04-26 20:01 14.24768 -70.98470 34803 ft 468 kts 314°
2026-04-26 20:02 14.27167 -71.00713 35201 ft 464 kts 314°
2026-04-26 20:02 14.29553 -71.02946 35523 ft 462 kts 314°
2026-04-26 20:02 14.31932 -71.05174 35798 ft 461 kts 314°
2026-04-26 20:02 14.33502 -71.06645 35980 ft 461 kts 314°
2026-04-26 20:03 14.36637 -71.09582 36380 ft 459 kts 314°
2026-04-26 20:03 14.38994 -71.11792 36649 ft 458 kts 314°
2026-04-26 20:03 14.41348 -71.13999 36893 ft 457 kts 314°
2026-04-26 20:03 14.43705 -71.16209 37114 ft 457 kts 314°
2026-04-26 20:04 14.46055 -71.18415 37337 ft 457 kts 313°
2026-04-26 20:04 14.48407 -71.20622 37535 ft 457 kts 313°
2026-04-26 20:04 14.50761 -71.22832 37728 ft 458 kts 313°
2026-04-26 20:04 14.53117 -71.25043 37905 ft 458 kts 313°
2026-04-26 20:05 14.57849 -71.29489 37909 ft 460 kts 313°
2026-04-26 20:05 14.62554 -71.33910 37903 ft 457 kts 313°
2026-04-26 20:06 14.67250 -71.38324 37911 ft 456 kts 313°
2026-04-26 20:06 14.71928 -71.42726 37913 ft 454 kts 313°
2026-04-26 20:07 14.76596 -71.47121 37914 ft 454 kts 313°
2026-04-26 20:07 14.81256 -71.51512 37915 ft 454 kts 313°
2026-04-26 20:08 14.85923 -71.55912 37915 ft 454 kts 313°
2026-04-26 20:08 14.90597 -71.60322 37913 ft 456 kts 313°
2026-04-26 20:09 14.95286 -71.64747 37921 ft 457 kts 313°
2026-04-26 20:09 14.99954 -71.69156 37916 ft 458 kts 313°
2026-04-26 20:10 15.04662 -71.73605 37916 ft 459 kts 313°
2026-04-26 20:10 15.09382 -71.78068 37916 ft 460 kts 313°
2026-04-26 20:11 15.14102 -71.82533 37912 ft 460 kts 312°
2026-04-26 20:12 15.21178 -71.89233 37913 ft 459 kts 312°
2026-04-26 20:12 15.25881 -71.93690 37915 ft 458 kts 312°
2026-04-26 20:13 15.30574 -71.98140 37918 ft 457 kts 312°
2026-04-26 20:13 15.35255 -72.02581 37918 ft 456 kts 312°
2026-04-26 20:14 15.39922 -72.07012 37912 ft 454 kts 312°
2026-04-26 20:14 15.44569 -72.11428 37914 ft 453 kts 311°
2026-04-26 20:15 15.49206 -72.15836 37922 ft 452 kts 311°
2026-04-26 20:15 15.53829 -72.20234 37916 ft 450 kts 311°
2026-04-26 20:16 15.58441 -72.24625 37919 ft 450 kts 311°
2026-04-26 20:16 15.63045 -72.29010 37919 ft 449 kts 311°
2026-04-26 20:17 15.67641 -72.33391 37917 ft 449 kts 311°
2026-04-26 20:17 15.72237 -72.37775 37918 ft 449 kts 311°
2026-04-26 20:18 15.76829 -72.42158 37925 ft 449 kts 311°
2026-04-26 20:18 15.81424 -72.46546 37923 ft 449 kts 311°
2026-04-26 20:19 15.86020 -72.50938 37925 ft 449 kts 311°
2026-04-26 20:19 15.90623 -72.55339 37929 ft 450 kts 311°
2026-04-26 20:20 15.95228 -72.59745 37926 ft 450 kts 311°
2026-04-26 20:20 15.99833 -72.64155 37924 ft 450 kts 311°
2026-04-26 20:21 16.04412 -72.68542 37927 ft 451 kts 311°
2026-04-26 20:21 16.09023 -72.72963 37921 ft 451 kts 311°
2026-04-26 20:22 16.13633 -72.77386 37929 ft 451 kts 311°
2026-04-26 20:22 16.18243 -72.81813 37925 ft 451 kts 311°
2026-04-26 20:23 16.22849 -72.86238 37918 ft 451 kts 311°
2026-04-26 20:23 16.27446 -72.90669 37929 ft 450 kts 310°
2026-04-26 20:24 16.32011 -72.95124 37925 ft 450 kts 310°
2026-04-26 20:24 16.36568 -72.99583 37930 ft 449 kts 310°
2026-04-26 20:25 16.41123 -73.04039 37920 ft 449 kts 310°
2026-04-26 20:25 16.45676 -73.08493 37923 ft 449 kts 310°
2026-04-26 20:26 16.50222 -73.12942 37928 ft 448 kts 310°
2026-04-26 20:26 16.54766 -73.17391 37926 ft 448 kts 310°
2026-04-26 20:27 16.59307 -73.21841 37925 ft 448 kts 310°
2026-04-26 20:27 16.63844 -73.26290 37926 ft 448 kts 310°
2026-04-26 20:28 16.68380 -73.30741 37925 ft 448 kts 310°
2026-04-26 20:28 16.72912 -73.35192 37925 ft 448 kts 310°
2026-04-26 20:29 16.77414 -73.39616 37926 ft 448 kts 310°
2026-04-26 20:29 16.81949 -73.44075 37928 ft 448 kts 310°
2026-04-26 20:30 16.86485 -73.48538 37928 ft 448 kts 310°
2026-04-26 20:30 16.91025 -73.53009 37930 ft 449 kts 310°
2026-04-26 20:31 16.95565 -73.57482 37930 ft 449 kts 310°
2026-04-26 20:31 17.00110 -73.61963 37932 ft 449 kts 310°
2026-04-26 20:32 17.04656 -73.66449 37933 ft 450 kts 310°
2026-04-26 20:32 17.09204 -73.70939 37935 ft 450 kts 310°
2026-04-26 20:33 17.13752 -73.75433 37932 ft 450 kts 309°
2026-04-26 20:33 17.18300 -73.79930 37935 ft 450 kts 309°
2026-04-26 20:34 17.22843 -73.84425 37938 ft 450 kts 309°
2026-04-26 20:34 17.27415 -73.88956 37945 ft 456 kts 309°
2026-04-26 20:35 17.32033 -73.93534 37933 ft 458 kts 309°
2026-04-26 20:35 17.36663 -73.98123 37936 ft 458 kts 309°
2026-04-26 20:36 17.41288 -74.02710 37936 ft 457 kts 309°
2026-04-26 20:36 17.45900 -74.07288 37928 ft 456 kts 309°
2026-04-26 20:37 17.50495 -74.11854 37934 ft 455 kts 309°
2026-04-26 20:37 17.55073 -74.16408 37934 ft 453 kts 309°
2026-04-26 20:38 17.58863 -74.20179 37934 ft 452 kts 309°
2026-04-26 20:38 17.63415 -74.24712 37944 ft 450 kts 309°
2026-04-26 20:39 17.67947 -74.29230 37936 ft 449 kts 309°
2026-04-26 20:39 17.72468 -74.33739 37931 ft 448 kts 309°
2026-04-26 20:40 17.76974 -74.38236 37943 ft 447 kts 309°
2026-04-26 20:40 17.81470 -74.42727 37943 ft 446 kts 309°
2026-04-26 20:41 17.85956 -74.47211 37930 ft 445 kts 309°
2026-04-26 20:41 17.90432 -74.51689 37934 ft 444 kts 309°
2026-04-26 20:42 17.94901 -74.56162 37937 ft 443 kts 309°
2026-04-26 20:42 17.99364 -74.60633 37935 ft 443 kts 309°
2026-04-26 20:43 18.03821 -74.65102 37934 ft 443 kts 309°
2026-04-26 20:43 18.08276 -74.69572 37935 ft 443 kts 309°
2026-04-26 20:44 18.12731 -74.74044 37936 ft 443 kts 309°
2026-04-26 20:44 18.17158 -74.78492 37935 ft 443 kts 309°
2026-04-26 20:45 18.21616 -74.82975 37935 ft 444 kts 309°
2026-04-26 20:45 18.26077 -74.87464 37932 ft 444 kts 309°
2026-04-26 20:46 18.30543 -74.91961 37932 ft 444 kts 309°
2026-04-26 20:46 18.35010 -74.96462 37935 ft 445 kts 309°
2026-04-26 20:47 18.39475 -75.00965 37936 ft 445 kts 309°
2026-04-26 20:47 18.40958 -75.02463 37748 ft 448 kts 309°
2026-04-26 20:47 18.43989 -75.05526 36946 ft 450 kts 309°
2026-04-26 20:47 18.46243 -75.07799 36218 ft 448 kts 309°
2026-04-26 20:48 18.48476 -75.10051 35739 ft 441 kts 309°
2026-04-26 20:48 18.50682 -75.12279 35170 ft 437 kts 309°
2026-04-26 20:48 18.52865 -75.14487 34639 ft 433 kts 310°
2026-04-26 20:48 18.55028 -75.16674 34099 ft 429 kts 310°
2026-04-26 20:49 18.57335 -75.18678 33596 ft 433 kts 322°
2026-04-26 20:49 18.59948 -75.20206 33275 ft 426 kts 325°
2026-04-26 20:49 18.62547 -75.21670 32821 ft 421 kts 325°
2026-04-26 20:49 18.65118 -75.23126 32267 ft 418 kts 325°
2026-04-26 20:50 18.67656 -75.24579 31774 ft 414 kts 325°
2026-04-26 20:50 18.70169 -75.26032 31271 ft 410 kts 325°
2026-04-26 20:50 18.72658 -75.27481 30773 ft 407 kts 325°
2026-04-26 20:50 18.75129 -75.28927 30279 ft 405 kts 325°
2026-04-26 20:51 18.77584 -75.30367 29726 ft 403 kts 325°
2026-04-26 20:51 18.80023 -75.31798 29183 ft 399 kts 325°
2026-04-26 20:51 18.82442 -75.33219 28656 ft 396 kts 326°
2026-04-26 20:51 18.84835 -75.34624 28150 ft 392 kts 326°
2026-04-26 20:52 18.87211 -75.36020 27662 ft 389 kts 326°
2026-04-26 20:52 18.89563 -75.37402 27182 ft 385 kts 326°
2026-04-26 20:52 18.91895 -75.38773 26705 ft 382 kts 326°
2026-04-26 20:52 18.94210 -75.40135 26229 ft 379 kts 327°
2026-04-26 20:53 18.96477 -75.41468 25768 ft 377 kts 327°
2026-04-26 20:53 18.98758 -75.42810 25305 ft 374 kts 327°
2026-04-26 20:53 19.01027 -75.44146 24843 ft 372 kts 327°
2026-04-26 20:53 19.03283 -75.45475 24363 ft 371 kts 328°
2026-04-26 20:54 19.05534 -75.46801 23899 ft 370 kts 328°
2026-04-26 20:54 19.07791 -75.48131 23419 ft 377 kts 328°
2026-04-26 20:54 19.10151 -75.49526 22886 ft 400 kts 328°
2026-04-26 20:54 19.12612 -75.50979 22344 ft 409 kts 328°
2026-04-26 20:55 19.15110 -75.52453 21802 ft 412 kts 328°
2026-04-26 20:55 19.17613 -75.53927 21273 ft 412 kts 329°
2026-04-26 20:55 19.20116 -75.55401 20757 ft 412 kts 329°
2026-04-26 20:55 19.22617 -75.56876 20243 ft 411 kts 328°
2026-04-26 20:56 19.25116 -75.58350 19730 ft 412 kts 329°
2026-04-26 20:56 19.27621 -75.59830 19217 ft 412 kts 329°
2026-04-26 20:56 19.30119 -75.61305 18681 ft 409 kts 329°
2026-04-26 20:56 19.32590 -75.62765 18150 ft 404 kts 329°
2026-04-26 20:57 19.35026 -75.64205 17578 ft 400 kts 329°
2026-04-26 20:57 19.37450 -75.65638 17049 ft 399 kts 329°
2026-04-26 20:57 19.39873 -75.67073 16532 ft 399 kts 329°
2026-04-26 20:57 19.42276 -75.68495 16011 ft 392 kts 329°
2026-04-26 20:58 19.44637 -75.69892 15513 ft 385 kts 329°
2026-04-26 20:58 19.46956 -75.71265 15026 ft 378 kts 329°
2026-04-26 20:58 19.49219 -75.72606 14538 ft 366 kts 329°
2026-04-26 20:58 19.51397 -75.73896 14069 ft 352 kts 329°
2026-04-26 20:59 19.53495 -75.75140 13593 ft 340 kts 329°
2026-04-26 20:59 19.55524 -75.76344 13117 ft 329 kts 329°
2026-04-26 20:59 19.57492 -75.77512 12686 ft 322 kts 329°
2026-04-26 20:59 19.59439 -75.78669 12269 ft 320 kts 329°
2026-04-26 21:00 19.61379 -75.79820 11839 ft 318 kts 329°
2026-04-26 21:00 19.63304 -75.80973 11415 ft 317 kts 327°
2026-04-26 21:00 19.64914 -75.82508 10942 ft 309 kts 304°
2026-04-26 21:00 19.66084 -75.84367 10529 ft 299 kts 303°
2026-04-26 21:01 19.67256 -75.86151 10252 ft 287 kts 304°
2026-04-26 21:01 19.68384 -75.87836 10111 ft 275 kts 304°
2026-04-26 21:01 19.69481 -75.89471 9991 ft 270 kts 304°
2026-04-26 21:01 19.70577 -75.91106 9702 ft 275 kts 304°
2026-04-26 21:02 19.71690 -75.92770 9357 ft 278 kts 304°
2026-04-26 21:02 19.72816 -75.94453 9033 ft 279 kts 304°
2026-04-26 21:02 19.73922 -75.96107 8697 ft 278 kts 304°
2026-04-26 21:02 19.75037 -75.97776 8359 ft 277 kts 304°
2026-04-26 21:03 19.76146 -75.99438 8029 ft 275 kts 304°
2026-04-26 21:03 19.77250 -76.01091 7697 ft 274 kts 304°
2026-04-26 21:03 19.78348 -76.02736 7372 ft 273 kts 304°
2026-04-26 21:03 19.79442 -76.04376 7032 ft 272 kts 304°
2026-04-26 21:04 19.80531 -76.06009 6713 ft 270 kts 304°
2026-04-26 21:04 19.81616 -76.07637 6395 ft 269 kts 305°
2026-04-26 21:04 19.82696 -76.09257 6075 ft 268 kts 304°
2026-04-26 21:04 19.83771 -76.10869 5760 ft 267 kts 305°
2026-04-26 21:05 19.84920 -76.12406 5442 ft 265 kts 319°
2026-04-26 21:05 19.86521 -76.13245 5359 ft 254 kts 348°
2026-04-26 21:05 19.88235 -76.13282 5238 ft 243 kts
2026-04-26 21:05 19.89867 -76.12845 5154 ft 242 kts 15°
2026-04-26 21:06 19.91477 -76.12326 5030 ft 241 kts 15°
2026-04-26 21:06 19.93077 -76.11809 4915 ft 239 kts 15°
2026-04-26 21:06 19.94595 -76.11078 4652 ft 245 kts 38°
2026-04-26 21:06 19.95466 -76.09604 4487 ft 234 kts 77°
2026-04-26 21:07 19.95551 -76.07907 4222 ft 227 kts 89°
2026-04-26 21:07 19.95632 -76.06253 3934 ft 220 kts 85°
2026-04-26 21:07 19.95749 -76.04666 3653 ft 211 kts 85°
2026-04-26 21:07 19.95852 -76.03146 3385 ft 201 kts 85°
2026-04-26 21:08 19.95946 -76.01679 3131 ft 196 kts 86°
2026-04-26 21:08 19.96038 -76.00260 2895 ft 188 kts 86°
2026-04-26 21:08 19.96128 -75.98883 2640 ft 184 kts 86°
2026-04-26 21:08 19.96212 -75.97559 2437 ft 178 kts 86°
2026-04-26 21:09 19.96299 -75.96240 2170 ft 179 kts 87°
2026-04-26 21:09 19.96385 -75.94937 1954 ft 176 kts 87°
2026-04-26 21:09 19.96463 -75.93679 1718 ft 167 kts 87°
2026-04-26 21:09 19.96541 -75.92473 1498 ft 161 kts 87°
2026-04-26 21:10 19.96618 -75.91319 1320 ft 152 kts 87°
2026-04-26 21:10 19.96691 -75.90183 1135 ft 157 kts 88°
2026-04-26 21:10 19.96768 -75.89013 927 ft 159 kts 88°
2026-04-26 21:10 19.96881 -75.87871 681 ft 157 kts 85°
2026-04-26 21:11 19.96959 -75.86738 428 ft 150 kts 94°
2026-04-26 21:11 19.96967 -75.85657 301 ft 145 kts 91°
2026-04-26 21:11 19.96977 -75.84626 221 ft 128 kts 92°
2026-04-26 21:11 19.96984 -75.83834 224 ft 86 kts 90°
2026-04-26 21:12 19.96981 -75.83357 225 ft 45 kts 92°
2026-04-26 21:12 19.96982 -75.83237 227 ft 8 kts 80°
2026-04-26 21:12 19.97002 -75.83161 227 ft 13 kts 65°
2026-04-26 21:12 19.97014 -75.83100 228 ft 5 kts 118°
2026-04-26 21:13 19.97000 -75.83093 229 ft 1 kts 193°
2026-04-26 21:13 19.96982 -75.83144 228 ft 19 kts 266°
2026-04-26 21:13 19.96991 -75.83316 226 ft 24 kts 268°
2026-04-26 21:13 19.96990 -75.83489 226 ft 24 kts 271°
2026-04-26 21:14 19.96987 -75.83676 225 ft 26 kts 274°
2026-04-26 21:14 19.97051 -75.83779 224 ft 9 kts 314°
2026-04-26 21:14 19.97092 -75.83825 223 ft 9 kts 314°
2026-04-26 21:14 19.97121 -75.83836 222 ft 0 kts 359°
2026-04-26 21:15 19.97129 -75.83836 222 ft 2 kts
2026-04-26 21:15 19.97151 -75.83834 221 ft 6 kts
2026-04-26 21:15 19.97178 -75.83823 221 ft 4 kts 40°
2026-04-26 21:15 19.97180 -75.83819 221 ft 2 kts 59°
2026-04-26 21:16 19.97184 -75.83807 221 ft 0 kts 75°
2026-04-26 21:16 19.97185 -75.83801 221 ft 0 kts 80°
2026-04-26 21:16 19.97186 -75.83793 221 ft 2 kts 84°
2026-04-26 21:16 19.97186 -75.83789 221 ft 0 kts 85°